EW1867 Weather Reports


Display with metric or nautical units.
time (UTC)temp
F
wind
direction
speed
MPH
gust
MPH
rain 1hr
in
rain 24hr
in
rain mn
in
humidity
%
barometer
mb
20260506084137 60 110 0.0 2.0 0.00 0.00 0.00 80 1017.6
20260506083237 60 106 1.0 2.0 0.00 0.00 0.00 80 1017.7
20260506082337 60 109 0.0 4.0 0.00 0.00 0.00 80 1017.7
20260506081437 60 0 0.0 1.0 0.00 0.00 0.00 81 1017.6
20260506080537 60 0 0.0 1.0 0.00 0.00 0.00 80 1017.6
20260506072037 60 0 0.0 0.0 0.00 0.00 0.00 80 1017.2
20260506070238 60 0 0.0 0.0 0.00 0.01 0.00 80 1017.1
20260506061737 61 0 0.0 0.0 0.00 0.03 0.01 80 1016.6
20260506060837 61 0 0.0 1.0 0.00 0.04 0.01 80 1016.6
20260506050537 62 0 0.0 2.0 0.00 0.14 0.01 79 1016.1
20260506044737 62 199 0.0 3.0 0.00 0.14 0.01 78 1016.0
20260506043837 62 168 0.0 3.0 0.00 0.14 0.01 78 1016.0
20260506042037 62 217 1.0 3.0 0.00 0.18 0.01 77 1015.6
20260506041138 63 220 1.0 4.0 0.00 0.22 0.01 77 1015.4
20260506040237 63 172 0.0 4.0 0.00 0.28 0.01 78 1015.3
20260506035337 63 0 0.0 4.0 0.00 0.32 0.01 78 1015.3
20260506034437 63 0 0.0 3.0 0.00 0.35 0.01 78 1015.4
20260506033537 63 107 1.0 2.0 0.00 0.37 0.01 77 1015.1
20260506032637 64 108 1.0 2.0 0.00 0.39 0.01 77 1015.1
20260506031737 64 106 1.0 6.0 0.00 0.43 0.01 76 1015.0
20260506030837 64 105 1.0 6.0 0.00 0.45 0.01 76 1014.8
20260506025937 64 127 1.0 2.0 0.00 0.47 0.01 76 1014.6
20260506025038 64 102 1.0 3.0 0.00 0.49 0.01 76 1014.6
20260506024137 64 102 0.0 3.0 0.00 0.50 0.01 76 1014.6
20260506023237 64 102 2.0 4.0 0.00 0.51 0.01 75 1014.4
20260506022337 64 106 2.0 7.0 0.00 0.52 0.01 75 1014.4
20260506021437 64 108 1.0 5.0 0.00 0.53 0.01 75 1014.3
20260506020538 64 108 1.0 6.0 0.00 0.53 0.01 74 1014.2
20260506014737 65 97 1.0 5.0 0.00 0.58 0.01 74 1014.2
20260506013837 65 100 2.0 5.0 0.00 0.59 0.01 73 1014.1
20260506012938 65 99 2.0 6.0 0.00 0.61 0.01 72 1014.0
20260506012037 65 100 3.0 10.0 0.00 0.62 0.01 72 1014.0
20260506011137 65 101 3.0 10.0 0.00 0.63 0.01 71 1014.0
20260506010237 66 91 2.0 6.0 0.00 0.63 0.01 70 1013.9
20260506005337 66 99 2.0 5.0 0.00 0.63 0.01 70 1013.8
20260506004437 67 105 1.0 4.0 0.00 0.64 0.01 69 1013.9
20260506003538 67 98 1.0 3.0 0.00 0.65 0.01 68 1013.7
20260506000838 67 88 2.0 4.0 0.00 0.66 0.01 66 1013.6
20260505235938 67 94 1.0 5.0 0.00 0.68 0.01 66 1013.6
20260505235037 68 95 1.0 3.0 0.00 0.70 0.01 64 1013.5
20260505234137 68 105 2.0 4.0 0.00 0.70 0.01 64 1013.6
20260505233237 69 106 1.0 3.0 0.00 0.71 0.01 62 1013.5
20260505232337 71 182 1.0 3.0 0.00 0.72 0.01 60 1013.4
20260505231437 72 143 1.0 5.0 0.00 0.73 0.01 59 1013.6
20260505230537 72 91 1.0 3.0 0.00 0.75 0.01 61 1013.6
20260505225637 71 234 1.0 3.0 0.00 0.77 0.01 62 1013.7
20260505224737 70 271 1.0 4.0 0.00 0.78 0.01 61 1013.7
20260505223837 70 244 1.0 4.0 0.00 0.78 0.01 61 1013.9
20260505222037 70 207 1.0 3.0 0.00 0.80 0.01 65 1014.0
20260505221137 68 211 0.0 3.0 0.00 0.81 0.01 67 1014.1
20260505220238 67 0 0.0 1.0 0.00 0.82 0.01 67 1014.2
20260505215338 67 0 0.0 3.0 0.00 0.82 0.01 66 1014.2
20260505213537 66 118 1.0 4.0 0.00 0.83 0.01 68 1014.4
20260505212637 67 202 0.0 4.0 0.00 0.83 0.01 67 1014.4
20260505211737 66 195 1.0 3.0 0.00 0.83 0.01 69 1014.4
20260505210837 67 228 1.0 4.0 0.00 0.83 0.01 67 1014.5
20260505204138 66 134 0.0 4.0 0.00 0.83 0.01 71 1014.4
20260505203237 65 103 1.0 4.0 0.00 0.83 0.01 73 1014.5
20260505201437 65 216 0.0 4.0 0.00 0.83 0.01 73 1014.6
20260505200538 64 204 0.0 2.0 0.00 0.83 0.01 72 1014.6
20260505195638 64 143 1.0 2.0 0.00 0.83 0.01 72 1014.7
20260505194737 65 0 0.0 3.0 0.00 0.84 0.01 73 1014.7
20260505193837 64 0 0.0 1.0 0.00 0.84 0.01 74 1014.8
20260505191137 62 154 1.0 2.0 0.00 0.84 0.01 80 1014.8
20260505190237 63 222 1.0 3.0 0.00 0.84 0.01 78 1014.7
20260505185337 63 195 1.0 3.0 0.00 0.84 0.01 81 1014.6
20260505184437 62 101 1.0 4.0 0.00 0.84 0.01 80 1014.7
20260505183537 62 222 1.0 3.0 0.00 0.84 0.01 81 1014.6
20260505182638 61 136 0.0 3.0 0.00 0.84 0.01 84 1014.6
20260505181737 60 0 0.0 3.0 0.00 0.84 0.01 85 1014.5
20260505175937 60 0 0.0 2.0 0.00 0.85 0.01 86 1014.6
20260505175037 59 108 0.0 2.0 0.00 0.85 0.01 86 1014.3
20260505174137 59 176 1.0 3.0 0.00 0.85 0.01 87 1014.4
20260505173238 59 178 1.0 4.0 0.00 0.85 0.01 87 1014.3
20260505172337 58 104 1.0 4.0 0.00 0.85 0.01 88 1014.2
20260505171437 58 103 1.0 4.0 0.00 0.85 0.01 88 1014.3
20260505170537 58 82 1.0 2.0 0.00 0.85 0.01 90 1014.3
20260505165637 57 101 1.0 3.0 0.00 0.85 0.01 90 1014.5
20260505164738 56 113 1.0 4.0 0.00 0.85 0.01 91 1014.5
20260505163837 56 118 1.0 5.0 0.00 0.85 0.01 93 1014.5
20260505162938 55 110 1.0 4.0 0.00 0.85 0.01 94 1014.4
20260505162038 55 104 1.0 4.0 0.00 0.85 0.01 95 1014.3
20260505161138 54 116 1.0 3.0 0.00 0.85 0.01 95 1014.3
20260505152637 54 0 0.0 3.0 0.00 0.85 0.01 96 1014.3
20260505151737 54 109 0.0 2.0 0.00 0.85 0.01 96 1014.2
20260505150838 53 103 1.0 3.0 0.00 0.85 0.01 96 1014.0
20260505140538 53 103 0.0 3.0 0.00 0.85 0.01 97 1013.4
20260505130238 53 110 1.0 3.0 0.00 0.85 0.01 97 1013.1
20260505123538 53 0 0.0 2.0 0.00 0.85 0.01 97 1012.9
20260505122638 53 0 0.0 2.0 0.00 0.85 0.01 97 1012.8
20260505121737 53 117 1.0 2.0 0.00 0.85 0.01 97 1012.8
20260505120837 52 112 1.0 3.0 0.00 0.85 0.01 97 1012.8
20260505115937 52 114 1.0 3.0 0.00 0.85 0.01 97 1012.9
20260505115038 52 116 1.0 4.0 0.00 0.85 0.01 97 1013.0
20260505114137 52 0 0.0 3.0 0.00 0.85 0.01 97 1013.1
20260505113237 52 0 0.0 2.0 0.00 0.85 0.01 97 1013.2
20260505110538 52 0 0.0 2.0 0.00 0.85 0.01 97 1013.0
20260505101137 53 0 0.0 2.0 0.00 0.85 0.01 96 1013.1
20260505100238 53 0 0.0 2.0 0.00 0.85 0.01 96 1013.0
20260505095338 53 0 0.0 2.0 0.00 0.85 0.01 96 1013.0
20260505094437 53 0 0.0 2.0 0.00 0.85 0.01 97 1013.1
20260505093538 53 105 0.0 3.0 0.00 0.85 0.01 97 1013.3
20260505092638 53 0 0.0 3.0 0.00 0.85 0.01 97 1013.3
20260505090838 53 0 0.0 1.0 0.00 0.85 0.01 97 1013.5
20260505085938 53 0 0.0 2.0 0.00 0.85 0.01 97 1013.6
20260505085037 53 0 0.0 2.0 0.00 0.85 0.01 97 1013.8